Location: Unspecified
(0.0000°N, 0.0000°E)
Time: 18:44:55
(UTC+00:00)

Tiangong 1 - Pass Details

Date: 26 May 2017
Orbit: 324 x 350 km, 42.8° (Epoch: 22 May)

Event Time Altitude Azimuth Distance (km) Brightness Sun altitude
Exits shadow 05:24:13 - 203° (SSW) 1,749 4.0 -7.7°
Reaches altitude 10° 05:25:35 10° 193° (SSW) 1,248 3.3 -7.3°
Maximum altitude 05:27:56 24° 135° (SE) 730 2.8 -6.8°
Drops below altitude 10° 05:30:19 10° 77° (ENE) 1,254 5.4 -6.2°
Sets 05:32:31 0° 63° (ENE) 2,093 7.4 -5.7°
